Location: Hoyos del Collado
(40.3594°N, 5.2003°W)
Time: 19:56:32
(UTC+00:00)

ISS - Pass Details

Date: 29 June 2024
Orbit: 409 x 423 km, 51.6° (Epoch: 22 July)

Event Time Altitude Azimuth Distance (km) Brightness Sun altitude
Exits shadow 01:46:45 37° 51° (NE) 654 -2.4 -23.6°
Drops below altitude 10° 01:48:54 10° 53° (NE) 1,487 -0.2 -23.5°
Sets 01:51:01 0° 53° (NE) 2,356 1.0 -23.3°
